CW7283 Weather Reports


Display with metric or nautical units.
time (UTC)temp
F
wind
direction
speed
MPH
gust
MPH
rain 1hr
in
rain 24hr
in
rain mn
in
humidity
%
barometer
mb
20260503024846 55 355 0.0 0.0 0.00 0.00 0.00 48 1015.0
20260503023346 56 355 0.0 0.0 0.00 0.00 0.00 46 1014.8
20260503021822 57 355 0.0 2.0 0.00 0.00 0.00 43 1014.7
20260503020324 59 360 0.0 0.0 0.00 0.00 0.00 42 1014.5
20260503014832 60 10 0.0 0.0 0.00 0.00 0.00 39 1014.3
20260503013324 60 360 0.0 2.0 0.00 0.00 0.00 37 1014.2
20260503011836 61 33 0.0 2.0 0.00 0.00 0.00 36 1014.2
20260503010324 62 17 0.0 2.0 0.00 0.00 0.00 36 1014.2
20260503004834 63 43 0.0 4.0 0.00 0.00 0.00 35 1014.2
20260503003409 64 31 0.0 2.0 0.00 0.00 0.00 36 1014.2
20260503001837 65 55 0.0 2.0 0.00 0.00 0.00 34 1014.2
20260503000400 65 40 0.0 4.0 0.00 0.00 0.00 34 1014.2
20260502234841 66 28 0.0 3.0 0.00 0.00 0.00 33 1014.2
20260502233333 66 9 0.0 4.0 0.00 0.00 0.00 33 1014.2
20260502231856 68 18 0.0 2.0 0.00 0.00 0.00 30 1014.2
20260502230326 70 355 0.0 3.0 0.00 0.00 0.00 29 1014.2
20260502224842 72 351 2.0 6.0 0.00 0.00 0.00 28 1014.3
20260502223330 71 28 2.0 7.0 0.00 0.00 0.00 30 1014.3
20260502221829 71 296 0.0 6.0 0.00 0.00 0.00 27 1014.6
20260502220350 72 9 1.0 10.0 0.00 0.00 0.00 29 1014.8
20260502214830 71 17 2.0 7.0 0.00 0.00 0.00 29 1014.8
20260502213347 71 337 1.0 8.0 0.00 0.00 0.00 30 1014.9
20260502211843 70 13 1.0 5.0 0.00 0.00 0.00 31 1015.1
20260502210348 68 287 2.0 7.0 0.00 0.00 0.00 29 1015.3
20260502204827 68 344 0.0 9.0 0.00 0.00 0.00 30 1015.3
20260502203326 68 13 1.0 8.0 0.00 0.00 0.00 31 1015.3
20260502201822 70 31 2.0 6.0 0.00 0.00 0.00 28 1015.3
20260502200340 70 348 1.0 7.0 0.00 0.00 0.00 29 1015.4
20260502194843 69 22 2.0 11.0 0.00 0.00 0.00 30 1015.3
20260502193333 70 15 2.0 6.0 0.00 0.00 0.00 28 1015.6
20260502191854 70 314 1.0 9.0 0.00 0.00 0.00 29 1015.6
20260502190343 69 308 0.0 8.0 0.00 0.00 0.00 28 1015.9
20260502184831 69 293 3.0 12.0 0.00 0.00 0.00 29 1015.9
20260502183337 68 308 2.0 7.0 0.00 0.00 0.00 28 1015.9
20260502181848 68 9 4.0 8.0 0.00 0.00 0.00 27 1015.9
20260502180344 68 294 3.0 8.0 0.00 0.00 0.00 28 1015.9
20260502170415 67 12 4.0 9.0 0.00 0.00 0.00 27 1016.0
20260502163332 67 315 4.0 7.0 0.00 0.00 0.00 27 1016.0
20260502161837 66 9 2.0 8.0 0.00 0.00 0.00 30 1016.0
20260502160413 65 13 2.0 5.0 0.00 0.00 0.00 34 1016.0
20260502151842 58 208 0.0 2.0 0.00 0.00 0.00 43 1016.0
20260502150342 54 162 0.0 2.0 0.00 0.00 0.00 44 1016.1
20260502130353 33 219 0.0 0.0 0.00 0.00 0.00 75 1016.3
20260502123352 31 219 0.0 0.0 0.00 0.00 0.00 75 1016.3
20260502121825 31 209 0.0 0.0 0.00 0.00 0.00 76 1016.3
20260502120326 31 218 0.0 0.0 0.00 0.00 0.00 76 1016.4
20260502114833 31 218 0.0 0.0 0.00 0.00 0.00 76 1016.4
20260502113325 31 218 0.0 0.0 0.00 0.00 0.00 74 1016.4
20260502111840 31 218 0.0 0.0 0.00 0.00 0.00 75 1016.4
20260502110345 31 219 0.0 0.0 0.00 0.00 0.00 75 1016.4
20260502104834 31 232 0.0 0.0 0.00 0.00 0.00 75 1016.5
20260502103345 32 232 0.0 0.0 0.00 0.00 0.00 74 1016.5
20260502101843 32 232 0.0 0.0 0.00 0.00 0.00 73 1016.5
20260502100401 33 232 0.0 0.0 0.00 0.00 0.00 71 1016.6
20260502090333 33 193 0.0 0.0 0.00 0.00 0.00 72 1016.8
20260502070329 37 182 0.0 0.0 0.00 0.00 0.00 68 1018.1
20260502064850 38 182 0.0 0.0 0.00 0.00 0.00 67 1018.2
20260502063348 38 182 0.0 0.0 0.00 0.00 0.00 65 1018.2
20260502061839 39 182 0.0 1.0 0.00 0.00 0.00 66 1018.2
20260502060334 39 176 0.0 0.0 0.00 0.00 0.00 64 1018.1
20260502054839 40 176 0.0 0.0 0.00 0.00 0.00 63 1018.3
20260502053333 41 176 0.0 0.0 0.00 0.00 0.00 62 1018.3
20260502051828 41 176 0.0 0.0 0.00 0.00 0.00 62 1018.3
20260502050334 42 182 0.0 0.0 0.00 0.00 0.00 61 1018.3
20260502044853 43 182 0.0 0.0 0.00 0.00 0.00 59 1018.3
20260502043338 44 182 0.0 0.0 0.00 0.00 0.00 59 1018.4
20260502041855 45 182 0.0 0.0 0.00 0.00 0.00 57 1018.6
20260502040358 46 179 0.0 0.0 0.00 0.00 0.00 53 1018.5
20260502034903 47 201 0.0 0.0 0.00 0.00 0.00 53 1018.4
20260502033342 48 202 0.0 0.0 0.00 0.00 0.00 52 1018.4
20260502031825 49 202 0.0 0.0 0.00 0.00 0.00 50 1018.3
20260502030338 51 212 0.0 2.0 0.00 0.00 0.00 47 1018.2